Location: ?ern� Novina
(50.6762°N, 14.8696°E)
Time: 17:26:04
(UTC+00:00)

ARGOS - Pass Details

Date: 03 March 2021
Orbit: 819 x 835 km, 98.4° (Epoch: 12 April)

Event Time Altitude Azimuth Distance (km) Brightness Sun altitude
Rises 17:49:45 0° 164° (SSE) 3,369 6.1 -11.0°
Reaches altitude 10° 17:52:06 10° 165° (SSE) 2,440 5.4 -11.3°
Maximum altitude 17:57:32 86° 254° (WSW) 845 3.2 -12.2°
Drops below altitude 10° 18:03:01 10° 345° (NNW) 2,460 5.9 -13.1°
Sets 18:05:23 0° 346° (NNW) 3,398 6.6 -13.4°
